SCP
0 0 0 0 0 0 0 0 0 0 0 0 0 0 0 0 0 0 0 0 1 1 1 1 1 1 1 1 2 2 3 3 4 4 3 3 2 2 1 1 1 1 1 1
0 0 0 0 0 0 0 0 0 0 0 0 0 0 0 0 0 0 0 1 1 1 1 1 1 1 1 1 2 2 3 3 4 4 3 3 2 2 1 1 1 1 1 0
0 0 0 0 0 0 0 0 0 0 0 0 0 0 0 0 0 1 1 1 2 2 2 2 2 1 1 2 2 3 3 4 4 4 4 3 2 2 1 1 0 0 0 0
0 0 0 0 0 0 0 0 0 0 0 0 0 0 0 0 1 1 2 2 3 3 3 2 2 2 2 2 2 3 4 4 5 5 4 3 3 2 1 0 0 0 0 0
0 0 0 0 0 0 0 0 0 0 0 0 0 0 0 0 1 1 2 3 3 3 3 3 3 3 3 3 3 4 4 5 5 5 4 3 2 1 1 0 0 0 0 0
0 0 0 0 0 0 0 0 0 0 0 0 0 0 0 0 1 1 2 2 3 3 3 3 3 3 3 3 3 4 4 5 5 4 4 3 2 1 0 0 0 0 0 0
0 0 0 0 0 0 0 0 0 0 0 0 0 0 0 1 1 1 2 2 2 2 2 3 3 3 3 3 3 3 4 4 3 3 2 1 1 0 0 0 0 0 0 0
0 0 0 0 0 0 0 0 0 0 0 0 0 0 1 1 1 1 1 1 1 1 1 1 2 2 2 2 2 2 2 2 2 2 1 1 0 0 0 0 0 0 0 0
0 0 0 0 0 0 0 0 0 0 0 0 0 0 1 1 1 1 1 1 1 1 1 1 1 1 1 1 1 1 1 1 1 1 0 0 0 0 0 0 0 0 0 0
0 0 0 0 0 0 0 0 0 0 0 0 0 0 1 1 1 1 0 0 0 0 0 0 0 0 0 0 0 0 0 0 0 0 0 0 0 0 0 0 0 0 0 0
0 0 0 0 0 0 0 0 0 0 0 0 0 0 1 1 1 0 0 0 0 0 0 0 0 0 0 0 0 0 0 0 0 0 0 0 0 0 0 0 0 0 0 0
0 0 0 0 0 0 0 0 0 0 0 0 0 0 0 1 0 0 0 0 0 0 0 0 0 0 0 0 0 0 0 0 0 0 0 0 0 0 0 0 0 0 0 0
0 0 0 0 0 0 0 0 0 0 0 0 0 0 0 0 0 0 0 0 0 0 0 0 0 0 0 0 0 0 0 0 0 0 0 0 0 0 0 0 0 0 0 0
0 0 0 0 0 0 0 0 0 0 0 0 0 0 0 0 0 0 0 0 0 0 0 0 0 0 0 0 0 0 0 0 0 0 0 0 0 0 0 0 0 0 0 0
0 0 0 0 0 0 0 0 0 0 0 0 0 0 0 0 0 0 0 0 0 0 0 0 0 0 0 0 0 0 0 0 0 0 0 0 0 0 0 0 0 0 0 0
0 0 0 0 0 0 0 0 0 0 0 0 0 0 0 0 0 0 0 0 0 0 0 0 0 0 0 0 0 0 0 0 0 0 0 0 0 0 0 0 0 0 0 0
0 0 0 0 0 0 0 0 0 0 0 0 0 0 0 0 0 0 0 0 0 0 0 0 0 0 0 0 0 0 0 0 0 0 0 0 0 0 0 0 0 0 0 0
0 0 0 0 0 0 0 0 0 0 0 0 0 0 0 0 0 0 0 0 0 0 0 0 0 0 0 0 0 0 0 0 0 0 0 0 0 0 0 0 0 0 0 0
0 0 0 0 0 0 0 0 0 0 0 0 0 0 0 0 0 0 0 0 0 0 0 0 0 0 0 0 0 0 0 0 0 0 0 0 0 0 0 0 0 0 0 0
0 0 0 0 0 0 0 0 0 0 0 0 0 0 0 0 0 0 0 0 0 0 0 0 0 0 0 0 0 0 0 0 0 0 0 0 0 0 0 0 0 0 0 0
0 0 0 0 0 0 0 0 0 0 0 0 0 0 0 0 0 0 0 0 0 0 0 0 0 0 0 0 0 0 0 0 0 0 0 0 0 0 0 0 0 0 0 0
0 0 0 0 0 0 0 0 0 0 0 0 0 0 0 0 0 0 0 0 0 0 0 0 0 0 0 0 0 0 0 0 0 0 0 0 0 0 0 0 0 0 0 0
0 0 0 0 0 0 0 0 0 0 0 0 0 0 0 0 0 0 0 0 0 0 0 0 0 0 0 0 0 0 0 0 0 0 0 0 0 0 0 0 0 0 0 0
0 0 0 0 0 0 0 0 0 0 0 0 0 0 0 0 0 0 0 0 0 0 0 0 0 0 0 0 0 0 0 0 0 0 0 0 0 0 0 0 0 0 0 0
0 0 0 0 0 0 0 0 0 0 0 0 0 0 0 0 0 0 0 0 0 0 0 0 0 -0 0 0 0 0 0 0 0 0 0 0 0 0 0 0 0 0 0 0
0 0 0 0 0 0 0 0 0 0 0 0 0 0 0 0 0 0 0 0 0 0 0 0 -0 -0 0 0 0 0 0 0 0 0 0 0 0 0 0 0 0 0 0 0
Wind_Speed
2 3 3 6 6 6 4 5 8 9 7 4 10 15 14 10 7 7 8 10 11 11 10 10 9 9 7 5 7 9 11 12 10 8 7 6 5 4 4 3 4 5 6 6
2 4 9 7 6 5 6 7 9 11 8 6 9 15 12 7 5 5 8 11 13 11 8 9 7 7 10 10 9 8 9 11 11 9 6 5 6 5 4 4 6 6 6 6
6 8 8 7 7 7 9 8 9 9 10 7 4 8 7 1 4 7 6 7 9 11 11 9 7 7 7 9 10 10 9 10 10 10 8 8 6 5 4 5 5 5 6 6
7 10 7 7 9 8 8 9 7 6 4 5 2 4 7 2 7 9 9 9 9 8 7 6 6 6 6 7 8 9 9 9 9 11 11 12 8 6 5 5 5 6 6 7
7 6 7 9 12 9 9 8 4 3 2 3 4 1 8 2 6 7 9 11 10 9 8 7 5 3 3 5 7 8 8 8 8 9 10 10 7 7 8 8 9 7 6 7
10 7 7 10 11 9 7 1 4 4 4 2 4 1 5 3 3 9 9 11 11 10 9 9 8 7 6 5 6 8 9 7 7 9 8 9 11 12 12 10 9 7 5 6
8 8 7 6 5 4 3 5 4 4 3 5 5 2 1 7 8 12 12 11 11 10 10 10 11 10 9 9 8 8 10 9 8 9 9 9 11 11 12 11 9 8 6 5
3 7 6 4 6 5 4 9 7 4 2 4 3 2 4 10 13 14 13 12 11 11 10 11 11 11 11 11 10 10 11 11 10 10 10 10 10 8 8 9 9 8 6 6
2 6 6 4 5 8 4 4 8 6 1 1 2 4 6 9 12 13 12 11 11 10 10 11 11 12 11 12 12 12 12 12 12 11 12 12 11 11 11 11 9 8 7 8
1 4 6 4 4 2 6 6 6 5 3 2 3 2 4 9 11 11 10 10 10 9 10 10 11 11 12 12 12 13 14 14 13 12 11 11 12 11 11 11 10 9 9 8
2 1 5 6 5 2 3 3 4 4 5 5 2 2 4 8 11 12 11 10 9 9 10 10 10 10 11 12 12 13 13 14 13 12 12 13 12 11 11 10 10 10 9 8
2 3 2 1 2 3 6 3 4 4 2 2 3 2 7 10 11 12 11 10 9 9 9 10 10 11 11 12 12 13 13 13 13 12 13 13 12 11 11 11 10 10 9 8
2 4 4 6 7 8 6 4 3 4 3 2 2 2 6 11 11 11 11 10 9 9 10 10 11 11 11 12 12 13 13 13 12 12 13 13 12 12 12 11 10 9 9 9
4 4 4 3 4 1 3 5 4 5 4 2 2 5 6 9 10 9 10 10 10 10 10 11 11 11 12 12 12 13 13 12 12 13 13 13 11 11 10 10 9 9 9 10
6 4 2 0 1 5 9 8 7 6 3 4 6 7 6 7 8 8 9 10 10 10 11 11 11 12 12 12 12 12 12 11 11 12 12 11 10 10 10 10 9 9 10 10
5 3 3 3 5 11 12 10 8 7 4 6 10 8 6 7 8 9 10 11 11 10 10 11 12 12 12 12 11 11 11 10 10 11 10 9 9 10 9 8 8 9 9 8
3 3 4 1 1 6 9 7 6 5 4 2 5 6 8 9 9 7 8 9 10 10 10 10 10 10 10 9 9 10 9 9 9 9 8 8 8 8 7 8 8 7 7 7
3 3 3 2 5 6 1 1 5 7 8 8 10 9 10 11 10 8 7 9 10 10 10 9 8 8 8 8 8 8 8 8 8 7 7 6 7 7 6 7 7 6 5 5
4 5 4 4 4 4 1 1 1 4 5 6 10 11 11 12 11 8 8 9 9 8 8 7 6 7 7 7 7 8 7 7 7 6 6 5 6 6 6 5 4 3 3 3
6 6 5 4 4 2 2 5 2 7 4 3 7 10 9 5 5 4 5 8 8 7 6 6 6 6 6 5 6 7 6 6 6 5 5 5 5 5 5 4 3 2 2 2
5 6 5 4 3 1 4 7 3 3 4 4 5 7 5 3 4 7 7 7 7 7 6 6 6 6 5 5 6 6 6 5 4 4 4 4 4 4 4 3 2 1 1 1
3 3 3 3 3 3 5 4 3 4 3 5 5 6 8 11 11 9 8 7 7 7 6 6 6 5 4 5 5 6 4 3 3 4 4 4 3 2 3 2 1 1 2 2
3 5 4 4 4 4 1 4 4 5 6 5 6 9 12 11 10 9 7 6 6 6 5 5 6 5 4 4 5 5 2 2 3 3 3 2 2 1 1 1 1 1 2 2
1 4 6 5 2 3 4 5 4 5 6 7 10 10 10 10 9 8 7 6 5 5 5 5 5 4 3 2 3 2 2 2 3 2 1 1 1 1 0 1 1 2 2 2
0 4 5 4 3 4 3 4 5 7 9 11 10 9 9 10 9 8 6 6 5 4 4 4 4 3 2 2 2 2 2 3 2 2 2 2 2 2 0 1 1 1 1 3
2 4 6 5 6 6 3 3 6 8 9 11 11 9 8 8 8 7 6 5 5 5 4 4 3 3 2 2 2 1 2 3 3 2 2 2 2 2 2 2 2 4 2 4
Wind_Direction
226 117 219 231 207 209 247 276 285 279 282 278 254 254 254 246 247 230 199 180 166 163 166 155 161 165 155 162 177 178 172 167 162 157 149 139 130 117 103 96 103 109 111 113
14 244 230 230 245 251 264 278 284 292 292 284 261 255 248 232 222 205 179 157 150 148 146 150 153 157 159 173 182 184 179 172 170 161 147 129 121 106 95 89 81 88 99 104
211 242 233 234 250 251 258 244 256 272 304 316 280 276 259 252 84 70 76 104 116 134 145 153 158 159 166 178 175 180 182 174 164 145 128 116 102 97 98 96 88 80 91 94
242 248 243 235 241 229 254 244 242 268 308 302 11 276 281 156 81 74 63 69 80 82 96 120 140 157 173 178 173 173 177 165 160 152 150 150 154 146 134 120 106 90 84 88
243 235 222 233 237 221 231 245 243 255 262 316 345 177 290 33 88 86 75 70 65 69 77 81 86 118 136 149 157 158 150 153 156 151 151 147 137 123 121 116 110 98 85 83
249 254 219 225 236 223 226 287 4 41 72 330 264 141 299 351 125 116 89 73 63 61 62 62 56 56 58 80 113 123 121 124 134 131 130 136 135 133 132 126 120 109 97 88
284 276 251 227 238 256 137 92 35 5 27 250 253 141 301 21 68 102 96 77 61 52 49 52 54 55 56 64 81 101 111 107 109 115 118 122 126 130 131 129 123 117 108 101
269 284 260 220 188 189 170 135 152 180 210 285 335 109 67 70 76 82 80 75 66 54 49 50 50 53 55 59 69 84 94 97 100 104 106 107 109 110 111 114 117 115 112 108
263 271 284 253 194 154 147 168 169 140 214 311 302 116 117 105 93 88 83 77 69 60 54 53 52 54 56 60 63 74 83 84 85 91 96 97 100 104 108 107 106 106 107 107
192 289 304 304 41 50 158 153 99 117 153 240 287 165 183 153 124 106 94 84 75 68 61 57 56 57 58 61 65 69 74 79 79 83 89 94 95 99 104 105 105 103 99 98
47 10 341 28 31 326 49 64 101 134 158 161 235 306 338 147 129 116 104 94 83 73 68 65 64 62 63 64 66 70 74 78 80 82 87 89 91 94 96 97 98 97 95 93
7 95 30 358 325 46 85 83 109 132 248 167 149 24 30 99 107 109 103 94 86 82 78 74 72 70 69 69 69 71 73 77 79 83 86 86 87 88 89 88 88 89 88 86
76 81 46 359 353 10 46 31 69 122 107 88 114 96 70 93 96 100 101 96 89 85 81 78 76 74 73 73 73 74 75 79 81 84 86 86 84 85 86 87 86 85 84 82
95 78 129 170 228 292 37 37 42 86 104 97 91 111 101 98 99 98 99 100 97 89 86 85 85 82 79 78 78 79 77 78 82 83 84 83 83 84 83 82 79 78 80 83
79 66 21 350 82 70 54 49 48 59 99 124 111 104 106 106 108 106 103 98 92 91 90 88 88 88 87 85 83 82 82 79 80 83 84 85 85 83 80 77 76 76 79 86
62 70 48 43 86 82 61 45 52 50 48 103 107 94 91 92 94 97 101 104 99 93 92 92 91 90 88 88 89 88 86 84 84 85 84 82 83 83 81 79 80 80 82 87
44 76 70 27 108 74 42 20 43 44 20 92 103 113 115 95 83 89 100 101 100 97 91 87 85 86 87 86 89 89 87 87 87 87 86 85 85 83 83 87 83 82 85 92
109 79 91 64 57 71 150 107 84 74 52 79 101 108 101 96 83 70 83 99 98 95 91 86 83 83 81 82 83 86 86 87 88 88 87 86 86 85 84 83 82 83 89 99
104 107 82 79 83 102 82 27 182 116 70 87 113 117 114 113 92 67 64 85 94 95 94 92 90 90 88 86 90 92 88 88 88 88 88 88 89 88 85 83 82 82 90 99
49 70 84 83 100 122 299 324 121 107 100 128 134 143 151 146 111 117 99 94 94 94 94 94 91 91 92 90 93 95 92 90 89 92 93 92 91 96 95 96 87 79 99 121
29 34 56 73 89 74 311 329 59 122 185 166 144 148 147 115 126 126 116 102 99 99 96 93 91 89 92 93 92 91 89 90 95 93 91 87 93 103 104 94 79 87 92 69
110 87 63 82 95 252 306 20 91 160 136 116 114 116 112 110 110 111 109 107 105 100 94 92 90 85 80 85 91 93 92 91 86 85 88 98 114 125 118 109 76 66 72 49
104 160 146 139 185 226 9 98 120 123 114 115 114 119 123 121 121 118 113 111 106 102 96 93 98 92 79 84 101 104 112 100 93 92 97 113 129 132 137 141 125 61 64 75
30 109 94 85 103 110 90 94 98 106 112 118 125 126 125 123 124 120 117 114 109 105 106 108 106 104 98 104 113 138 156 130 113 102 121 176 181 220 58 78 121 123 119 107
281 89 93 102 139 102 85 112 116 110 113 118 121 122 126 125 125 124 121 120 117 115 115 117 120 126 144 157 168 187 174 144 146 182 234 247 232 214 173 69 74 131 174 168
337 136 140 180 191 154 162 140 126 125 129 131 128 122 123 125 124 120 118 119 119 118 116 117 125 133 147 152 173 194 170 157 161 195 238 252 244 215 176 138 77 52 89 122